[[{"header":{"parameterUnit":"m.s-1","parameterCategory":1,"la1":30.2992,"la2":30.254,"lo1":-89.0895,"lo2":-89.0443,"dy":0.0025,"dx":0.0025,"nx":19,"ny":19,"refTime":"2026-03-11T21:00:00:Z","depth":0,"parameterNumber":2,"parameterNumberName":"U-component_of_WINDS"},"data":[0,0,0,-0.1401,-0.1402,-0.1427,-0.1427,-0.1464,-0.1464,0,0,0,0,0,0,0,0,0,0,0,-0.1395,-0.1396,-0.1401,-0.1402,-0.1427,-0.1427,-0.1464,-0.1464,0,0,0,0,0,0,0,0,0,0,0,-0.1395,-0.1395,-0.1396,-0.1402,-0.1427,-0.1427,-0.1463,-0.1443,0,0,0,0,0,0,0,0,0,0,-0.1418,-0.1414,-0.1395,-0.1396,-0.1402,-0.1427,-0.1427,-0.1442,-0.1444,-0.1453,0,-0.1462,0,-0.1463,-0.1467,-0.1467,0,0,0,-0.1401,-0.1412,-0.1417,-0.1396,-0.1402,-0.1427,-0.1415,-0.1443,-0.1446,-0.1456,-0.1462,-0.1463,-0.1464,-0.1467,-0.1467,-0.1521,-0.1522,0,0,-0.1399,-0.1401,-0.1415,-0.1419,-0.1415,-0.1415,-0.1416,-0.1445,-0.1451,-0.1462,-0.1464,-0.1464,-0.1467,-0.1467,-0.1521,-0.1521,0,0,0,-0.1396,-0.14,-0.1404,-0.1418,-0.1422,-0.1415,-0.1417,-0.145,-0.1451,-0.1464,-0.1465,-0.1467,-0.1468,-0.1521,-0.1521,-0.1538,0,0,0,-0.1395,-0.1398,-0.1404,-0.1405,-0.1421,-0.1436,-0.1422,-0.1449,-0.1452,-0.1465,-0.1467,-0.1468,-0.152,-0.1521,-0.1537,-0.1547,0,0,0,-0.1393,-0.1398,-0.1402,-0.1405,-0.1416,-0.1436,-0.1438,-0.145,-0.1453,-0.1467,-0.1468,-0.152,-0.1521,-0.1536,-0.1545,-0.1562,0,0,0,-0.1392,-0.1418,-0.1402,-0.1431,-0.1416,-0.1446,-0.1438,-0.146,-0.1474,-0.1467,-0.152,-0.1521,-0.1536,-0.1544,-0.1561,-0.1577,-0.1583,0,0,-0.1426,-0.1422,-0.1439,-0.1426,-0.1458,-0.1441,-0.1477,-0.1488,-0.1488,-0.151,-0.1512,-0.1538,-0.1545,-0.1561,-0.1618,-0.1624,0,0,0,-0.145,-0.1462,-0.147,-0.1483,-0.1492,-0.15,-0.1505,-0.1509,-0.1528,-0.1499,-0.1547,-0.1552,-0.1561,-0.1569,-0.1574,-0.1582,-0.1524,-0.1524,-0.1524,-0.1503,-0.15,-0.1527,-0.1527,-0.154,-0.1544,-0.1554,-0.156,-0.1555,-0.1566,-0.1573,-0.1608,-0.1617,-0.162,-0.1629,-0.158,-0.158,-0.158,-0.158,-0.1553,-0.157,-0.156,-0.1583,-0.158,-0.1599,-0.1604,-0.1599,-0.1617,-0.1602,-0.1611,-0.1596,-0.1626,-0.1634,-0.1582,-0.1582,-0.1581,-0.1581,-0.1581,-0.1588,-0.1595,-0.1599,-0.1616,-0.163,-0.1628,-0.1645,-0.1642,-0.1639,-0.1647,-0.1654,-0.1654,-0.1654,-0.165,-0.165,-0.165,-0.165,-0.165,-0.1651,-0.1623,-0.1626,-0.1641,-0.1651,-0.1658,-0.1667,-0.167,-0.1677,-0.1684,-0.168,-0.168,-0.1673,-0.1629,-0.1619,-0.1652,-0.1652,-0.1652,-0.1652,-0.1652,-0.1678,-0.1664,-0.1687,-0.1694,-0.1704,-0.1718,-0.1712,-0.1726,-0.1731,-0.174,-0.1731,-0.1698,-0.1695,-0.1691,-0.1682,-0.1731,-0.1731,-0.1731,-0.1731,-0.1708,-0.1705,-0.1727,-0.1738,-0.1748,-0.1745,-0.1771,-0.1773,-0.1773,-0.1776,-0.1768,-0.1756,-0.1752,-0.1751,-0.1746,-0.1738,-0.1799,-0.1799,-0.1799,-0.1741,-0.1739,-0.1762,-0.1761,-0.1768,-0.1774,-0.1799,-0.1812,-0.1809,-0.1802,-0.1778,-0.1775,-0.1755,-0.1749,-0.1743,-0.1736,-0.1721,0,0]},{"header":{"parameterUnit":"m.s-1","parameterCategory":1,"la1":30.2992,"la2":30.254,"lo1":-89.0895,"lo2":-89.0443,"dy":0.0025,"dx":0.0025,"nx":19,"ny":19,"refTime":"2026-03-11T21:00:00:Z","depth":0,"parameterNumber":3,"parameterNumberName":"V-component_of_WINDS"},"data":[0,0,0,-9.8775,-9.878,-9.9015,-9.9016,-9.9323,-9.9326,0,0,0,0,0,0,0,0,0,0,0,-9.8713,-9.8715,-9.8775,-9.8781,-9.9015,-9.9016,-9.9323,-9.9326,0,0,0,0,0,0,0,0,0,0,0,-9.8712,-9.8715,-9.8718,-9.8782,-9.9015,-9.9016,-9.9322,-9.9142,0,0,0,0,0,0,0,0,0,0,-9.8912,-9.8863,-9.8714,-9.8718,-9.8783,-9.9015,-9.9016,-9.9133,-9.9153,-9.9221,0,-9.9287,0,-9.9312,-9.9348,-9.9349,0,0,0,-9.8774,-9.8846,-9.8903,-9.8718,-9.8786,-9.9015,-9.8908,-9.9144,-9.9167,-9.9248,-9.9291,-9.9302,-9.9317,-9.935,-9.9351,-9.9778,-9.9781,0,0,-9.8761,-9.8758,-9.8888,-9.8919,-9.8887,-9.89,-9.8915,-9.9158,-9.9203,-9.9292,-9.9309,-9.9322,-9.9352,-9.9354,-9.9776,-9.9779,0,0,0,-9.8729,-9.8749,-9.88,-9.8906,-9.8948,-9.8907,-9.8924,-9.9192,-9.9209,-9.9312,-9.9326,-9.9354,-9.9358,-9.9774,-9.9777,-9.9892,0,0,0,-9.872,-9.873,-9.8795,-9.8795,-9.8944,-9.9074,-9.8953,-9.9192,-9.922,-9.9324,-9.9354,-9.9361,-9.9771,-9.9776,-9.9883,-9.9946,0,0,0,-9.8695,-9.8727,-9.8764,-9.8795,-9.8896,-9.907,-9.9101,-9.9198,-9.9229,-9.9349,-9.9362,-9.9769,-9.9775,-9.9876,-9.9933,-10.006,0,0,0,-9.8666,-9.8858,-9.8766,-9.8986,-9.8894,-9.914,-9.9099,-9.9281,-9.9398,-9.9355,-9.9771,-9.9777,-9.9873,-9.9925,-10.0052,-10.0168,-10.0215,0,0,-9.8906,-9.8887,-9.9017,-9.8941,-9.9204,-9.9104,-9.9383,-9.949,-9.9501,-9.9684,-9.9695,-9.9886,-9.9932,-10.0059,-10.0482,-10.052,0,0,0,-9.9092,-9.9186,-9.9256,-9.937,-9.9461,-9.9543,-9.9609,-9.965,-9.9807,-9.9596,-9.9965,-9.9993,-10.0067,-10.0122,-10.0155,-10.0219,-9.9802,-9.9801,-9.9801,-9.9427,-9.9437,-9.9654,-9.9693,-9.9804,-9.9874,-9.9964,-10.003,-10.0001,-10.0089,-10.0144,-10.04,-10.0465,-10.0489,-10.0557,-10.0205,-10.0205,-10.0205,-10.0206,-9.9782,-9.9917,-9.9883,-10.0081,-10.009,-10.0255,-10.033,-10.0306,-10.046,-10.0358,-10.0424,-10.0314,-10.0531,-10.059,-10.0214,-10.0213,-10.0212,-10.0211,-10.021,-10.0003,-10.007,-10.012,-10.029,-10.0419,-10.045,-10.0603,-10.0603,-10.0604,-10.0669,-10.0728,-10.0727,-10.0726,-10.0697,-10.0698,-10.0699,-10.07,-10.0701,-10.0701,-10.0213,-10.0266,-10.0396,-10.0513,-10.0589,-10.0689,-10.0763,-10.0837,-10.0918,-10.0906,-10.0907,-10.0872,-10.0551,-10.0471,-10.0715,-10.0713,-10.0711,-10.071,-10.0709,-10.0571,-10.0492,-10.0693,-10.0771,-10.0909,-10.1039,-10.104,-10.1191,-10.1252,-10.1327,-10.128,-10.1042,-10.102,-10.0994,-10.0928,-10.1276,-10.1276,-10.1276,-10.1276,-10.0759,-10.075,-10.0959,-10.1083,-10.1204,-10.1227,-10.1454,-10.1514,-10.1563,-10.1602,-10.1551,-10.1463,-10.1437,-10.1431,-10.1396,-10.1334,-10.1778,-10.1778,-10.1779,-10.0981,-10.0985,-10.1179,-10.1232,-10.1341,-10.1435,-10.165,-10.1791,-10.1829,-10.1799,-10.1632,-10.1611,-10.1469,-10.1422,-10.1387,-10.1332,-10.1219,0,0]}]]